Tracking 35237 objects as of 6-Sep-2026
HD Live streaming from Space Station
objects crossing your sky now

STARLINK-2450

Track STARLINK-2450 now!
10-day predictions
STARLINK-2450 is classified as:


NORAD ID: 48113
Int'l Code: 2021-027X
Launch date: April 7, 2021
Source: United States (US)
Launch site: AIR FORCE EASTERN TEST RANGE (AFETR)
Your satellite tracking list
Your tracking list is empty




NASA's NSSDC Master Catalog

Two Line Element Set (TLE):
1 48113U 21027X   26248.89998185  .00007030  00000-0  23796-3 0  9998
2 48113  53.1608  46.6615 0001260  79.8668 280.2476 15.31715310300114
Source of the keplerian elements: AFSPC